When you browse on this site, cookies collect data to enhance your experience and personalize the content and advertising you see.
Visit our Privacy Policy to learn more. By continuing to use the site, you agree to this use of cookies and data.
EN

Hourly Weather Jewłach

Today, 4 August, Tuesday

Time Temperature Precipitation Wind Pressure Humidity
00:00 +25°C° 0 mm 5 mps 759 mmHg 57%
01:00 +25°C° 0 mm 4 mps 759 mmHg 58%
02:00 +25°C° 0 mm 3 mps 759 mmHg 58%
03:00 +25°C° 0 mm 3 mps 759 mmHg 58%
04:00 +25°C° 0 mm 3 mps 759 mmHg 58%
05:00 +25°C° 0 mm 3 mps 759 mmHg 58%
06:00 +25°C° 0 mm 3 mps 759 mmHg 58%
07:00 +26°C° 0 mm 3 mps 759 mmHg 56%
08:00 +27°C° 0 mm 4 mps 759 mmHg 53%
09:00 +28°C° 0 mm 5 mps 760 mmHg 51%
10:00 +28°C° 0 mm 6 mps 759 mmHg 49%
11:00 +29°C° 0 mm 6 mps 759 mmHg 47%
12:00 +30°C° 0 mm 6 mps 759 mmHg 45%
13:00 +30°C° 0 mm 6 mps 758 mmHg 44%
14:00 +30°C° 0 mm 5 mps 758 mmHg 42%
15:00 +32°C° 0 mm 5 mps 758 mmHg 41%
16:00 +30°C° 0 mm 5 mps 758 mmHg 42%
17:00 +30°C° 0 mm 5 mps 758 mmHg 43%
18:00 +29°C° 0 mm 4 mps 758 mmHg 44%
19:00 +28°C° 0 mm 4 mps 758 mmHg 46%
20:00 +27°C° 0 mm 3 mps 758 mmHg 47%
21:00 +26°C° 0 mm 3 mps 758 mmHg 48%
22:00 +26°C° 0 mm 3 mps 758 mmHg 50%
23:00 +26°C° 0 mm 3 mps 758 mmHg 51%

Tomorrow, 5 August, Wednesday

Time Temperature Precipitation Wind Pressure Humidity
00:00 +26°C° 0 mm 2 mps 758 mmHg 52%
01:00 +25°C° 0 mm 3 mps 757 mmHg 53%
02:00 +25°C° 0 mm 3 mps 757 mmHg 54%
03:00 +24°C° 0 mm 3 mps 757 mmHg 55%
04:00 +24°C° 0 mm 2 mps 757 mmHg 54%
05:00 +24°C° 0 mm 2 mps 757 mmHg 54%
06:00 +25°C° 0 mm 2 mps 756 mmHg 54%
07:00 +26°C° 0 mm 2 mps 756 mmHg 50%
08:00 +27°C° 0 mm 2 mps 756 mmHg 47%
09:00 +28°C° 0 mm 2 mps 756 mmHg 43%
10:00 +29°C° 0 mm 2 mps 756 mmHg 40%
11:00 +30°C° 0 mm 2 mps 755 mmHg 38%
12:00 +31°C° 0 mm 3 mps 755 mmHg 35%
13:00 +32°C° 0 mm 2 mps 755 mmHg 33%
14:00 +32°C° 0 mm 2 mps 755 mmHg 32%
15:00 +34°C° 0 mm 2 mps 754 mmHg 30%
16:00 +34°C° 0 mm 2 mps 755 mmHg 31%
17:00 +32°C° 0 mm 2 mps 755 mmHg 32%
18:00 +32°C° 0 mm 2 mps 755 mmHg 34%
19:00 +30°C° 0 mm 3 mps 755 mmHg 38%
20:00 +29°C° 0 mm 4 mps 756 mmHg 42%
21:00 +27°C° 0 mm 5 mps 757 mmHg 47%
22:00 +26°C° 0 mm 4 mps 757 mmHg 50%
23:00 +25°C° 0 mm 4 mps 757 mmHg 54%

Day after tomorrow, 6 August, Thursday

Time Temperature Precipitation Wind Pressure Humidity
00:00 +25°C° 0 mm 4 mps 757 mmHg 57%
01:00 +24°C° 0 mm 3 mps 757 mmHg 59%
02:00 +24°C° 0 mm 3 mps 757 mmHg 60%
03:00 +23°C° 0 mm 2 mps 757 mmHg 62%
04:00 +23°C° 0 mm 2 mps 757 mmHg 63%
05:00 +23°C° 0 mm 1 mps 757 mmHg 63%
06:00 +24°C° 0 mm 1 mps 758 mmHg 64%
07:00 +25°C° 0 mm 2 mps 758 mmHg 57%
08:00 +27°C° 0 mm 2 mps 758 mmHg 51%
09:00 +29°C° 0 mm 2 mps 758 mmHg 44%
10:00 +30°C° 0 mm 2 mps 758 mmHg 41%
11:00 +31°C° 0 mm 2 mps 757 mmHg 37%
12:00 +34°C° 0 mm 3 mps 757 mmHg 33%
13:00 +34°C° 0 mm 3 mps 757 mmHg 32%
14:00 +35°C° 0 mm 2 mps 757 mmHg 30%
15:00 +35°C° 0 mm 2 mps 757 mmHg 29%
16:00 +35°C° 0 mm 3 mps 757 mmHg 30%
17:00 +35°C° 0 mm 3 mps 757 mmHg 31%
18:00 +34°C° 0 mm 3 mps 758 mmHg 32%
19:00 +33°C° 0 mm 4 mps 758 mmHg 35%
20:00 +30°C° 0 mm 5 mps 759 mmHg 38%
21:00 +28°C° 0 mm 6 mps 759 mmHg 41%
22:00 +27°C° 0 mm 5 mps 759 mmHg 45%
23:00 +26°C° 0 mm 4 mps 759 mmHg 49%

7 August, Friday

Time Temperature Precipitation Wind Pressure Humidity
00:00 +26°C° 0 mm 3 mps 759 mmHg 53%
01:00 +25°C° 0 mm 3 mps 759 mmHg 55%
02:00 +25°C° 0 mm 3 mps 759 mmHg 57%
03:00 +24°C° 0 mm 2 mps 759 mmHg 60%
04:00 +25°C° 0 mm 2 mps 759 mmHg 59%
05:00 +25°C° 0 mm 1 mps 760 mmHg 59%
06:00 +25°C° 0 mm 1 mps 760 mmHg 58%
07:00 +27°C° 0 mm 1 mps 760 mmHg 52%
08:00 +28°C° 0 mm 1 mps 760 mmHg 46%
09:00 +30°C° 0 mm 1 mps 759 mmHg 40%
10:00 +31°C° 0 mm 1 mps 759 mmHg 37%
11:00 +32°C° 0 mm 1 mps 759 mmHg 34%
12:00 +35°C° 0 mm 2 mps 759 mmHg 30%
13:00 +35°C° 0 mm 2 mps 758 mmHg 29%
14:00 +36°C° 0 mm 2 mps 758 mmHg 28%
15:00 +36°C° 0 mm 2 mps 758 mmHg 27%
16:00 +36°C° 0 mm 2 mps 758 mmHg 28%
17:00 +36°C° 0 mm 2 mps 758 mmHg 29%
18:00 +35°C° 0 mm 2 mps 758 mmHg 30%
19:00 +33°C° 0 mm 1 mps 758 mmHg 32%
20:00 +31°C° 0 mm 1 mps 758 mmHg 35%
21:00 +30°C° 0 mm 1 mps 758 mmHg 37%
22:00 +29°C° 0 mm 2 mps 758 mmHg 39%
23:00 +28°C° 0 mm 3 mps 758 mmHg 42%

8 August, Saturday

Time Temperature Precipitation Wind Pressure Humidity
00:00 +27°C° 0 mm 3 mps 758 mmHg 44%
01:00 +27°C° 0 mm 3 mps 758 mmHg 45%
02:00 +26°C° 0 mm 2 mps 758 mmHg 47%
03:00 +26°C° 0 mm 1 mps 758 mmHg 48%
04:00 +26°C° 0 mm 1 mps 758 mmHg 48%
05:00 +26°C° 0 mm 1 mps 758 mmHg 48%
06:00 +26°C° 0 mm 1 mps 758 mmHg 49%
07:00 +28°C° 0 mm 1 mps 757 mmHg 43%
08:00 +30°C° 0 mm 1 mps 757 mmHg 38%
09:00 +32°C° 0 mm 1 mps 757 mmHg 33%
10:00 +33°C° 0 mm 1 mps 756 mmHg 30%
11:00 +36°C° 0 mm 2 mps 756 mmHg 28%
12:00 +37°C° 0 mm 2 mps 755 mmHg 25%
13:00 +38°C° 0 mm 2 mps 755 mmHg 24%
14:00 +38°C° 0 mm 2 mps 754 mmHg 23%
15:00 +39°C° 0 mm 2 mps 754 mmHg 22%
16:00 +38°C° 0 mm 2 mps 754 mmHg 22%
17:00 +38°C° 0 mm 2 mps 754 mmHg 23%
18:00 +37°C° 0 mm 2 mps 753 mmHg 24%
19:00 +35°C° 0 mm 2 mps 754 mmHg 27%
20:00 +33°C° 0 mm 3 mps 754 mmHg 29%
21:00 +32°C° 0 mm 4 mps 754 mmHg 32%
22:00 +30°C° 0 mm 4 mps 754 mmHg 36%
23:00 +29°C° 0 mm 4 mps 754 mmHg 40%

9 August, Sunday

Time Temperature Precipitation Wind Pressure Humidity
00:00 +28°C° 0 mm 5 mps 754 mmHg 43%
01:00 +27°C° 0 mm 4 mps 754 mmHg 47%
02:00 +27°C° 0 mm 3 mps 754 mmHg 50%
03:00 +26°C° 0 mm 2 mps 753 mmHg 53%
04:00 +26°C° 0 mm 2 mps 753 mmHg 54%
05:00 +26°C° 0 mm 1 mps 753 mmHg 54%
06:00 +26°C° 0 mm 1 mps 753 mmHg 55%
07:00 +29°C° 0 mm 2 mps 753 mmHg 47%
08:00 +31°C° 0 mm 2 mps 753 mmHg 39%
09:00 +34°C° 0 mm 3 mps 753 mmHg 31%
10:00 +36°C° 0 mm 3 mps 752 mmHg 29%
11:00 +37°C° 0 mm 4 mps 752 mmHg 26%
12:00 +40°C° 0 mm 5 mps 752 mmHg 23%
13:00 +40°C° 0 mm 5 mps 751 mmHg 22%
14:00 +41°C° 0 mm 5 mps 751 mmHg 21%
15:00 +42°C° 0 mm 4 mps 750 mmHg 20%
16:00 +41°C° 0 mm 5 mps 750 mmHg 21%
17:00 +40°C° 0 mm 6 mps 751 mmHg 23%
18:00 +39°C° 0 mm 7 mps 751 mmHg 25%
19:00 +36°C° 0 mm 6 mps 751 mmHg 33%
20:00 +33°C° 0 mm 6 mps 752 mmHg 41%
21:00 +30°C° 0 mm 6 mps 752 mmHg 50%
22:00 +29°C° 0 mm 5 mps 752 mmHg 55%
23:00 +28°C° 0 mm 4 mps 752 mmHg 61%
Show more